Regional Weather Roundup
Issued by NWS

Home | Current Version | Previous Version | Graphics & Text | Print | Product List | Glossary On
Versions: 1 2 3 4 5 6 7 8 9 10 11 12 13 14 15 16 17 18 19 20 21 22 23 24 25 26 27 28 29 30 31 32 33 34 35 36 37 38 39 40 41 42 43 44 45 46 47 48 49 50
000
ASUS44 KMEG 102200
RWRTN
TENNESSEE HOURLY STATE WEATHER ROUNDUP
NATIONAL WEATHER SERVICE MEMPHIS TN
400 PM CST SUN DEC 10 2017

TNZ002-004-019-021-049-052-054-088>092-102300-
WEST TENNESSEE

CITY           SKY/WX    TMP DP  RH WIND       PRES   REMARKS
MEMPHIS INTL   PTCLDY    52  28  39 SW12      30.18R
NWS MEMPHIS      N/A     53 N/A N/A MISG        N/A
JACKSON        CLEAR     51  24  34 SW14G22   30.15S
DYERSBURG      CLEAR     52  28  39 SW15      30.13S
$$

TNZ008-025-027-028-033-062-065-066-102300-
NORTH MIDDLE TENNESSEE

CITY           SKY/WX    TMP DP  RH WIND       PRES   REMARKS
NASHVILLE      PTCLDY    48  16  27 SW14G20   30.11F
CLARKSVILLE    PTCLDY    47  19  33 SW16G23   30.08F
SMYRNA         CLEAR     47  21  35 SW10      30.14F
CROSSVILLE     CLEAR     39  14  36 VRB5      30.11F
$$

TNZ061-075-076-078-094-096-097-102300-
SOUTH MIDDLE TENNESSEE

CITY           SKY/WX    TMP DP  RH WIND       PRES   REMARKS
$$

TNZ017-018-042-046-047-102300-
NORTHEAST TENNESSEE

CITY           SKY/WX    TMP DP  RH WIND       PRES   REMARKS
TRI CITIES     PTCLDY    36  18  48 W8        30.12R WCI  30
$$

TNZ012-013-036-069-073-074-102300-
CENTRAL EAST TENNESSEE

CITY           SKY/WX    TMP DP  RH WIND       PRES   REMARKS
KNOXVILLE      PTCLDY    40  24  53 SW14      30.15F WCI  32
OAK RIDGE      CLEAR     42  21  43 SW7G16    30.16F
$$

TNZ083-085-099-102300-
SOUTHEAST TENNESSEE

CITY           SKY/WX    TMP DP  RH WIND       PRES   REMARKS
CHATTANOOGA    PTCLDY    45  17  32 SW8       30.20S
$$

SKY/WX REPORTED AS FAIR MEANS FEW OR NO CLOUDS BELOW
12 THOUSAND FEET.





USA.gov is the U.S. government's official web portal to all federal, state and local government web resources and services.